Terminal Aerodrome Forecast
Issued by NWS Louisville, KY

Home | Current Version | Previous Version | Text Only | Print | Product List | Glossary On
Versions: 1 2 3 4 5 6 7 8 9 10 11 12 13 14 15 16 17 18 19 20 21 22 23
000
FTUS43 KLMK 171700
TAFLEX
TAF
KLEX 171721Z 1718/1818 VRB03KT P6SM BKN035
     FM172300 VRB03KT P6SM SKC
     FM181000 VRB03KT 5SM BR SCT003
     FM181300 05006KT P6SM SCT035=

USA.gov is the U.S. government's official web portal to all federal, state and local government web resources and services.